GFSNE_925_temp_246.txt.gz
Temp
17 17 17 17 17 17 17 16 14 8 6 7 6 5 5 6 4 4 3 2 2 1 0 0 -1 -1 -2 -1 -1 -1 -1 -1 -1 -1 -0 0 0 0
16 16 16 16 16 16 16 15 15 12 5 7 5 4 4 4 4 4 3 2 1 0 0 -0 0 -1 -2 -2 -2 -2 -2 -2 -2 -1 -1 -1 -1 -1
15 15 15 14 14 14 13 13 13 12 6 5 5 3 4 4 4 4 3 2 1 -0 -0 -0 -1 -1 -2 -3 -3 -3 -3 -2 -2 -2 -2 -2 -2 -2
14 14 13 13 13 12 12 11 11 10 9 5 4 3 3 3 3 4 2 1 0 -0 -1 -1 -1 -1 -1 -3 -3 -3 -3 -3 -3 -2 -1 -2 -1 -2
13 13 13 12 11 10 10 9 9 9 9 7 3 2 2 3 3 2 1 1 -0 -1 -1 -1 -1 -1 -2 -4 -3 -3 -3 -3 -3 -2 -2 -1 -1 -1
12 13 13 12 11 9 9 8 8 7 7 6 3 2 1 1 0 -0 0 -1 -1 -1 -1 -2 -1 -2 -2 -3 -4 -4 -4 -4 -4 -4 -3 -2 -1 -1
11 11 11 11 10 9 9 7 7 6 5 4 2 -0 -1 -2 -2 -3 -3 -2 -2 -2 -1 -1 -2 -2 -2 -4 -4 -4 -4 -4 -4 -4 -4 -3 -2 -1
10 9 9 9 8 8 8 7 8 7 5 3 1 -1 -2 -3 -3 -4 -3 -3 -3 -2 -2 -2 -3 -3 -3 -5 -4 -5 -5 -5 -4 -4 -5 -5 -4 -3
10 8 8 7 7 7 6 6 6 6 6 6 3 1 -2 -2 -2 -4 -3 -3 -3 -3 -2 -2 -3 -2 -3 -3 -5 -5 -5 -5 -5 -5 -5 -5 -5 -5
9 8 7 6 6 6 6 5 4 3 3 3 3 1 1 -0 -2 -2 -2 -3 -2 -3 -2 -2 -3 -3 -3 -4 -4 -4 -5 -5 -5 -5 -5 -5 -5 -5
7 7 7 6 5 6 6 4 2 1 1 1 1 -1 -1 -1 -1 -3 -2 -2 -3 -3 -4 -5 -3 -4 -4 -4 -4 -4 -4 -5 -5 -6 -6 -6 -5 -4
5 5 6 6 5 6 6 3 1 -0 -1 -1 -2 -2 -2 -2 -2 -2 -1 -2 -4 -4 -4 -4 -4 -4 -3 -4 -4 -5 -4 -5 -5 -5 -5 -6 -5 -5
3 3 4 5 5 5 5 4 4 1 -1 -1 -2 -1 -2 -2 -2 -2 -2 -3 -3 -4 -4 -4 -4 -5 -5 -4 -4 -5 -5 -5 -5 -5 -5 -6 -5 -6
3 4 4 3 4 3 3 3 2 1 -0 -1 -1 -2 -2 -2 -2 -3 -4 -3 -3 -3 -4 -4 -4 -4 -4 -5 -5 -5 -5 -6 -5 -6 -5 -5 -5 -6
3 4 4 3 2 1 2 1 1 0 -0 -1 -1 -1 -0 -1 -2 -3 -4 -4 -3 -3 -3 -4 -4 -4 -4 -5 -5 -6 -6 -6 -6 -6 -6 -6 -6 -6
3 2 1 0 -0 0 0 1 1 0 0 0 0 0 -1 -2 -2 -2 -3 -3 -3 -3 -3 -4 -4 -4 -4 -5 -5 -6 -6 -6 -6 -6 -6 -6 -7 -7
1 0 -1 -1 -1 -1 -1 -0 -0 0 0 1 1 -0 -1 -1 -1 -2 -2 -3 -3 -3 -3 -4 -4 -4 -5 -5 -5 -6 -6 -6 -7 -7 -6 -7 -7 -8
-0 -3 -3 -3 -3 -2 -2 -2 -1 -0 0 0 0 -0 -1 -1 -1 -2 -2 -2 -2 -3 -3 -4 -4 -5 -5 -6 -6 -6 -6 -7 -7 -7 -7 -7 -8 -8
-1 -3 -3 -4 -4 -4 -3 -2 -2 -1 -1 -0 -1 -1 -1 -1 -1 -2 -2 -2 -2 -3 -3 -4 -4 -5 -7 -13 -6 -6 -7 -7 -7 -7 -7 -8 -8 -8
-2 -3 -3 -3 -4 -3 -3 -3 -2 -2 -2 -2 -2 -2 -2 -2 -2 -3 -3 -3 -3 -3 -4 -4 -4 -5 -6 -7 -7 -6 -7 -7 -8 -8 -8 -8 -9 -8
-2 -3 -3 -3 -3 -3 -2 -2 -2 -2 -3 -3 -3 -3 -3 -3 -3 -3 -3 -3 -3 -4 -4 -4 -5 -5 -6 -7 -7 -7 -6 -7 -7 -8 -8 -8 -8 -8
-2 -2 -2 -2 -2 -2 -2 -2 -2 -3 -3 -3 -4 -4 -4 -4 -4 -4 -4 -4 -4 -4 -4 -5 -6 -6 -6 -6 -7 -7 -7 -7 -7 -7 -8 -8 -8 -8
-2 -2 -1 -2 -2 -1 -1 -2 -2 -3 -3 -3 -4 -4 -4 -5 -5 -4 -4 -4 -4 -5 -5 -6 -6 -6 -6 -7 -7 -7 -7 -7 -7 -7 -7 -8 -8 -9

GFSNE_925_temp_252.txt.gz
Temp
20 19 19 19 18 16 16 14 10 7 6 4 3 4 4 5 5 4 3 2 2 2 1 1 -1 -2 -2 -2 -2 -2 -1 -1 -1 -1 -1 -1 0 1
19 19 19 18 17 16 16 15 14 11 5 4 3 3 3 3 3 3 2 2 1 0 0 -0 -1 -2 -3 -3 -3 -3 -2 -2 -2 -2 -2 -1 -1 -1
18 18 18 18 16 15 15 15 14 13 5 2 3 2 2 3 2 2 1 1 0 -0 -1 -1 -1 -2 -3 -3 -3 -3 -3 -3 -3 -3 -3 -3 -2 -2
16 17 17 16 15 15 14 13 13 13 11 2 0 1 2 1 2 2 1 -0 -1 -1 -1 -1 -1 -1 -4 -3 -3 -4 -4 -4 -4 -4 -4 -4 -4 -3
17 17 17 15 14 13 13 13 12 13 13 7 0 1 0 1 1 0 -1 -1 -1 -1 -2 -2 -2 -2 -2 -3 -3 -4 -4 -4 -4 -4 -4 -4 -5 -4
16 16 16 15 14 12 11 12 12 12 10 6 2 1 0 -0 0 -0 -1 -1 -2 -2 -2 -2 -2 -2 -2 -2 -3 -3 -4 -4 -4 -4 -5 -4 -5 -5
14 13 14 14 14 14 15 9 10 10 7 4 1 0 -0 -1 -1 -1 -1 -2 -2 -2 -2 -3 -2 -3 -2 -3 -3 -3 -3 -4 -5 -5 -5 -4 -3 -4
12 11 11 11 10 13 10 10 11 11 5 2 2 0 1 1 1 0 -1 -3 -2 -2 -1 -3 -3 -3 -3 -3 -3 -3 -3 -3 -4 -5 -5 -4 -4 -4
12 11 11 11 12 10 7 9 10 11 13 11 7 5 3 4 3 0 -0 -1 -2 -2 -2 -3 -4 -4 -4 -3 -3 -3 -3 -3 -3 -4 -4 -4 -5 -4
12 13 13 12 10 9 7 7 8 9 9 9 10 9 8 6 6 5 2 -0 -2 -2 -2 -3 -4 -4 -4 -4 -4 -4 -3 -3 -3 -3 -3 -4 -4 -4
11 11 10 11 9 7 7 6 5 6 6 7 7 7 6 5 4 2 -0 -1 -4 -3 -3 -3 -5 -4 -4 -4 -5 -4 -4 -4 -4 -4 -4 -4 -4 -3
8 7 8 9 8 7 7 6 4 3 4 4 4 4 4 2 2 2 2 1 -2 -4 -3 -4 -5 -5 -4 -5 -5 -5 -4 -4 -5 -4 -4 -4 -4 -4
5 5 5 7 7 7 8 8 7 3 3 4 2 2 0 0 0 0 0 1 0 -2 -2 -3 -4 -6 -5 -5 -5 -5 -5 -4 -5 -4 -5 -5 -5 -5
5 4 3 6 5 5 6 6 5 4 3 1 0 -1 -2 -2 -1 -1 -0 -0 -1 -0 -1 -2 -3 -4 -4 -5 -5 -5 -6 -5 -5 -5 -6 -5 -5 -6
4 3 1 1 3 5 6 5 5 4 3 -1 -1 -1 -2 -1 -2 -2 -2 -2 -2 -2 -3 -3 -3 -3 -3 -4 -4 -5 -5 -6 -6 -6 -6 -6 -6 -6
2 2 3 4 5 3 2 2 2 3 2 -0 -1 -1 -2 -3 -3 -2 -2 -3 -3 -3 -3 -3 -3 -4 -4 -4 -5 -5 -6 -6 -6 -6 -6 -7 -7 -7
3 1 -0 -0 -1 -1 -0 -0 -1 1 1 -1 -2 -2 -3 -3 -3 -3 -3 -3 -3 -4 -4 -4 -4 -4 -4 -5 -5 -5 -5 -6 -6 -6 -6 -7 -7 -8
1 -0 -1 -1 -1 -2 -3 -2 -1 1 -0 -2 -1 -1 -3 -3 -3 -3 -3 -3 -3 -4 -4 -4 -4 -5 -5 -5 -5 -5 -6 -6 -7 -7 -7 -7 -7 -8
1 -0 -0 -1 -1 -2 -1 -2 -2 -0 -2 -2 -1 -2 -2 -3 -3 -3 -3 -3 -4 -4 -4 -4 -4 -5 -6 -6 -5 -6 -6 -6 -7 -7 -7 -7 -8 -8
1 0 -0 -1 -1 -1 -1 -1 -1 -1 -2 -2 -2 -2 -2 -2 -3 -4 -4 -4 -3 -4 -4 -4 -4 -4 -4 -6 -5 -6 -6 -7 -7 -7 -7 -7 -7 -8
0 0 -0 -0 -1 -1 -1 -1 -1 -2 -2 -2 -2 -2 -2 -2 -2 -3 -3 -2 -3 -3 -4 -4 -3 -4 -5 -5 -6 -6 -6 -7 -7 -7 -8 -7 -8 -8
0 0 -1 -1 -1 -2 -2 -2 -2 -2 -2 -2 -2 -1 -1 -1 -2 -2 -2 -3 -3 -3 -3 -3 -4 -5 -6 -6 -6 -7 -7 -7 -7 -7 -7 -8 -8 -8
0 -1 -1 -2 -2 -2 -2 -1 -2 -2 -2 -2 -2 -2 -1 -2 -1 -1 -2 -2 -3 -3 -4 -5 -5 -6 -6 -6 -7 -7 -7 -7 -7 -7 -7 -8 -8 -8

GFSNE_925_temp_255.txt.gz
Temp
18 18 18 17 19 19 19 17 12 9 9 6 6 4 4 4 3 3 2 3 3 1 1 -0 -1 -1 -2 -2 -2 -2 -1 -1 -1 -1 -1 -0 0 1
17 17 17 16 18 19 18 17 17 13 9 7 6 4 4 3 3 2 1 1 1 1 0 1 1 -0 -1 -1 -2 -2 -3 -2 -2 -2 -2 -1 -1 -0
17 16 16 16 16 16 16 16 14 14 9 4 5 3 3 3 1 1 1 0 -0 0 0 0 0 0 -0 -2 -3 -3 -3 -3 -3 -3 -3 -3 -2 -1
16 16 16 15 15 14 14 14 13 12 10 5 4 3 3 2 1 1 1 0 -0 -0 -0 -0 -0 -0 -1 -2 -3 -3 -4 -4 -4 -4 -2 -4 -3 -3
16 15 15 14 14 13 13 11 11 12 12 6 4 3 2 1 0 -0 0 -0 -0 -1 -1 -1 -1 -1 -1 -2 -3 -3 -4 -4 -4 -3 -2 -2 -4 -4
16 15 15 14 13 13 12 11 11 9 8 5 3 2 1 -0 1 -0 -1 -1 -1 -2 -2 -2 -2 -1 -1 -2 -3 -3 -3 -4 -4 -3 -3 -3 -2 -4
15 15 15 15 14 15 14 11 10 7 5 3 2 1 -0 -1 -0 -0 -1 -1 -2 -2 -2 -3 -2 -2 -3 -3 -3 -2 -2 -3 -3 -3 -3 -2 -3 -3
14 13 13 12 12 13 13 13 12 9 4 3 1 1 -0 -0 -0 -1 -1 -2 -1 -3 -3 -3 -3 -3 -3 -3 -3 -2 -2 -2 -2 -2 -2 -2 -3 -3
13 13 12 11 11 11 11 12 12 13 13 8 5 3 1 1 2 -1 -1 -1 -0 -3 -2 -3 -4 -4 -3 -3 -3 -3 -3 -3 -3 -3 -2 -3 -3 -3
14 13 13 12 11 11 10 7 6 7 7 9 10 9 8 6 6 4 0 -2 -3 -3 -2 -2 -4 -4 -4 -4 -3 -3 -3 -3 -3 -3 -2 -3 -3 -4
13 13 13 13 12 11 7 6 5 5 5 7 9 9 8 7 6 3 -1 -1 -2 -2 -2 -2 -4 -4 -4 -4 -4 -4 -3 -4 -4 -3 -3 -3 -3 -3
11 11 12 12 11 10 9 7 4 4 4 5 5 5 6 6 5 5 3 1 0 -2 -3 -2 -4 -3 -3 -4 -4 -4 -4 -4 -4 -4 -4 -3 -4 -5
10 9 8 8 10 9 9 8 5 3 5 6 3 2 1 2 2 2 3 1 1 -0 -2 -2 -3 -4 -2 -3 -4 -5 -4 -5 -5 -5 -5 -4 -5 -5
9 9 8 7 7 4 3 3 4 3 2 1 -1 -2 -2 -1 -0 1 2 1 1 2 1 -2 -3 -2 -3 -4 -3 -5 -5 -5 -6 -6 -6 -6 -6 -6
9 8 6 4 3 2 2 3 5 4 2 0 -2 -3 -2 -1 -2 -1 -0 -1 -0 -0 -2 -2 -2 -3 -3 -2 -3 -4 -5 -6 -6 -6 -6 -6 -6 -6
6 4 3 1 1 3 3 3 2 2 3 1 -2 -2 -1 -1 -3 -2 -2 -3 -3 -4 -3 -3 -2 -3 -3 -3 -3 -4 -5 -4 -6 -6 -6 -6 -6 -7
2 0 -0 -0 0 -0 -1 0 1 0 -1 -1 -0 -0 -2 -4 -4 -4 -4 -3 -2 -3 -4 -4 -3 -3 -4 -4 -4 -4 -4 -5 -6 -6 -6 -5 -6 -7
1 -0 -0 0 -0 -1 -1 -2 -1 -1 -1 -1 -0 -1 -4 -4 -4 -4 -3 -2 -2 -3 -4 -5 -4 -5 -5 -5 -4 -4 -5 -5 -6 -7 -7 -6 -5 -7
1 0 0 0 -0 -1 -1 -2 -2 -2 -1 -0 -2 -3 -3 -4 -4 -4 -4 -3 -3 -3 -3 -5 -4 -3 -2 -2 -5 -5 -5 -6 -6 -6 -7 -6 -6 -6
1 1 1 0 -0 -1 -1 -1 -2 -1 -1 -2 -2 -3 -3 -3 -3 -3 -3 -3 -2 -3 -4 -4 -4 -3 -2 -2 -3 -6 -5 -6 -6 -6 -6 -7 -7 -7
1 1 0 0 -0 -1 -1 -1 -1 -2 -2 -2 -2 -3 -3 -3 -3 -3 -3 -3 -3 -3 -3 -4 -4 -4 -4 -4 -5 -6 -6 -6 -7 -7 -7 -7 -6 -6
1 1 0 0 -0 -0 -1 -1 -1 -2 -2 -2 -2 -2 -3 -3 -3 -3 -3 -3 -3 -3 -3 -3 -4 -4 -5 -5 -4 -5 -6 -7 -7 -7 -7 -7 -7 -5
1 1 0 0 -0 -0 -1 -1 -1 -1 -1 -2 -2 -2 -2 -2 -2 -3 -3 -3 -3 -4 -4 -6 -6 -6 -5 -5 -5 -6 -7 -7 -7 -7 -7 -7 -7 -7

GFSNE_925_temp_261.txt.gz
Temp
21 22 22 23 23 24 23 21 20 18 17 14 12 10 10 10 7 6 4 4 4 4 6 6 5 5 4 2 1 1 0 0 -0 -0 -0 0 1 1
21 21 21 22 23 23 23 21 20 21 20 16 14 12 11 10 6 6 4 3 3 2 4 5 5 5 3 1 1 2 2 -0 -0 -0 -1 -1 -0 0
21 21 21 21 22 23 22 21 20 20 21 16 13 12 11 9 6 6 5 2 1 1 1 3 4 3 3 2 3 2 1 2 0 1 0 -1 -2 -1
21 21 21 21 21 22 22 21 21 20 20 13 13 10 10 9 6 5 4 3 1 1 1 1 2 2 2 1 2 1 2 1 0 0 1 0 -0 -2
21 21 21 21 21 21 21 21 20 19 18 13 11 9 9 7 5 4 4 3 1 1 1 0 -0 1 1 1 1 1 2 1 1 1 1 0 -0 -0
21 21 21 21 21 21 21 20 18 17 15 12 10 8 7 5 5 3 2 2 0 -1 1 0 -0 0 0 0 0 0 1 1 1 0 0 -0 0 0
21 21 21 21 21 21 20 18 17 15 11 10 7 7 5 4 4 3 2 1 -0 -1 -1 -1 -1 -1 -0 -1 -1 -0 0 1 0 0 -0 -0 -0 -0
20 20 20 20 20 20 20 18 16 13 10 8 7 6 5 4 3 2 1 1 -0 -1 -1 -1 -1 -1 -0 -1 -1 -1 -0 0 0 -0 -1 -1 -0 -1
20 19 19 19 19 19 19 17 16 15 16 11 7 5 4 3 3 2 2 1 1 -0 -0 -1 -0 0 0 0 -0 -1 -1 0 0 -1 -1 -0 -0 -1
19 19 18 17 17 18 18 16 14 12 12 11 9 7 6 3 3 3 1 1 2 0 -0 -0 -1 -1 -1 -1 -1 -1 -1 -0 -1 -1 -1 -1 -0 -1
17 17 17 16 16 16 16 14 12 11 9 9 8 7 6 5 3 2 1 1 -0 -0 -1 -0 -2 -1 -2 -3 -3 -2 -2 -1 -2 -2 -2 -1 -0 -1
17 17 17 16 15 15 14 12 9 8 8 6 6 5 5 4 3 4 1 1 1 -1 -1 -0 -2 -2 -3 -3 -3 -3 -2 -2 -3 -3 -2 -2 -1 -1
15 15 15 14 15 14 14 12 11 8 6 5 4 3 2 2 2 2 2 2 2 3 1 1 -2 -2 -1 -3 -3 -3 -3 -3 -3 -3 -3 -3 -2 -2
14 14 14 14 13 13 11 11 8 7 5 4 2 1 1 1 1 1 2 2 4 5 3 1 -1 -1 -0 -2 -2 -3 -3 -3 -3 -2 -2 -2 -3 -3
14 14 14 13 12 11 9 8 7 5 3 2 2 1 1 0 1 1 2 3 4 3 2 0 1 -1 -0 -0 -1 -2 -3 -3 -3 -2 -2 -2 -2 -2
13 11 11 10 8 7 6 7 6 5 3 2 1 -0 -0 -0 -0 -0 0 1 1 -0 -1 -0 -0 -0 -0 0 -0 -2 -2 -2 -3 -2 -2 -2 -2 -2
9 7 5 3 2 2 2 3 3 2 2 1 -0 -1 -1 -1 -1 -0 0 0 -0 -2 -2 -2 -1 -0 0 1 0 -1 -1 -0 -2 -2 -2 -2 -2 -2
7 2 1 1 1 0 0 -0 0 0 -0 -1 -1 -1 -1 -1 -1 -1 -1 -1 -1 -1 -2 -2 -1 -0 -1 -0 1 1 -0 -0 -1 -2 -2 -1 -1 -2
4 2 1 1 1 0 0 -0 -0 -0 -0 -1 -1 -1 -1 -2 -2 -2 -2 -1 -0 -0 -1 -1 -1 -1 -1 -0 -1 -0 -0 -1 -2 -2 -2 -2 -1 -1
3 1 1 1 0 0 0 0 -0 -1 -1 -1 -1 -1 -2 -2 -2 -2 -2 -1 -0 -0 -1 -1 -1 -0 1 1 -2 -2 -1 -1 -2 -3 -3 -2 -3 -3
2 2 2 1 1 1 0 0 -0 -1 -1 -1 -1 -1 -1 -2 -1 -1 -1 -1 -1 -0 -1 -1 -1 0 0 0 -2 -4 -3 -2 -3 -3 -3 -3 -4 -4
2 1 1 1 1 1 0 0 -1 -1 -1 -1 -1 -1 -2 -1 -1 -1 -2 -1 -1 -1 -0 -1 -1 -0 -1 -1 -1 -3 -4 -4 -4 -4 -4 -4 -4 -3
2 2 2 1 1 1 0 -0 -1 -1 -1 -1 -1 -1 -2 -1 -1 -1 -2 -1 -1 -0 -0 -2 -2 -2 -2 -1 -1 -3 -4 -5 -6 -6 -5 -5 -4 -5

GFSNE_925_temp_264.txt.gz
Temp
21 22 23 23 23 23 24 22 19 13 12 11 10 10 10 9 10 9 9 8 7 7 7 8 6 5 5 3 2 2 2 2 2 1 1 1 1 1
20 21 21 22 22 23 23 23 22 20 14 15 13 13 10 9 9 9 8 8 7 7 7 7 7 5 3 4 3 3 3 4 2 1 -0 -0 0 0
20 20 20 21 21 22 23 23 22 20 18 16 15 14 11 9 9 7 6 6 4 5 5 6 5 5 3 3 3 4 3 3 2 2 1 -0 -1 -1
20 20 20 20 21 21 22 22 22 20 20 14 14 12 11 10 9 6 5 5 4 2 2 3 3 4 4 4 3 3 3 2 2 2 1 1 1 -0
21 20 20 20 20 20 21 21 21 20 19 16 13 12 11 8 7 5 4 3 3 2 1 1 1 2 2 3 3 1 3 2 2 1 1 2 2 1
21 20 20 20 20 20 20 20 21 20 19 16 12 10 10 7 6 4 3 1 1 1 0 0 -0 1 1 2 2 1 2 1 1 1 1 1 1 2
21 21 20 20 20 20 20 20 20 20 18 13 10 9 8 5 5 3 2 1 0 -0 -1 -2 -1 0 -0 1 1 0 1 0 1 1 1 1 2 2
20 20 20 20 21 21 21 20 20 19 15 12 9 8 8 6 5 3 2 -0 -1 -0 0 -1 -2 -1 -0 0 1 -0 -0 -1 -0 0 1 1 1 1
20 20 20 20 20 20 20 21 20 20 18 15 10 9 7 6 5 3 2 1 1 1 -0 -2 -2 -1 -0 0 -0 -1 -0 -1 0 1 1 1 1 1
20 20 20 20 20 20 19 20 20 19 17 16 15 14 13 9 7 5 2 1 2 2 0 -1 -1 -2 -1 -0 -0 -1 -0 -1 0 1 1 1 1 1
20 20 20 19 19 19 18 17 16 16 15 14 13 13 11 10 7 4 1 1 0 -1 -1 0 -1 -1 -1 -1 -1 -1 -1 -1 -1 1 1 1 1 1
19 20 19 19 19 19 17 16 15 15 13 11 10 9 8 7 7 7 3 3 1 -0 -0 0 -1 -1 -1 -2 -1 -2 -2 -2 -2 -1 -0 -0 1 -0
18 17 18 18 18 18 18 16 16 15 11 10 9 7 6 5 3 3 3 4 2 1 0 0 -1 -1 -1 -3 -2 -3 -2 -2 -2 -1 -1 -1 -1 -1
16 16 17 17 17 17 17 16 15 13 9 7 6 4 3 2 2 3 3 2 3 4 3 0 -1 -1 -1 -3 -3 -3 -3 -2 -2 -1 -1 -1 -2 -2
17 16 17 16 16 16 15 14 13 10 7 4 3 3 3 3 2 1 2 2 2 3 4 0 2 -1 -0 -1 -2 -3 -3 -3 -2 -2 -2 -2 -2 -2
16 14 15 15 14 14 11 11 11 9 7 5 4 3 2 1 1 1 1 1 2 2 1 1 2 2 -1 0 1 -2 -3 -2 -3 -2 -2 -2 -2 -2
9 11 10 9 7 7 6 6 6 5 5 4 3 1 1 1 1 0 0 0 1 -1 -1 -1 -0 0 -0 0 -0 -0 -3 -2 -2 -2 -2 -2 -2 -2
7 7 5 5 4 4 3 3 3 4 3 3 1 1 1 1 -0 -1 -1 0 -0 -1 -1 -1 -1 -1 -0 0 0 -1 -2 -1 -1 -2 -2 -2 -2 -2
5 5 4 3 3 3 3 3 2 2 2 2 1 1 0 -0 -1 -1 -1 0 -1 -1 -2 -2 -1 -1 -1 -1 -0 -0 -1 -1 -1 -2 -2 -2 -2 -1
3 3 3 3 2 2 2 2 2 1 1 1 0 0 -0 -1 -1 -1 -1 -1 -1 -1 -2 -2 -2 -2 -1 -1 -1 -0 -0 -0 -1 -1 -2 -2 -2 -2
3 3 2 2 2 2 2 1 1 0 0 -0 -1 -1 -1 -1 -1 -1 -1 -1 -1 -2 -2 -2 -2 -2 -2 -0 -1 -2 -1 -1 -1 -1 -2 -2 -3 -3
2 2 2 2 2 1 1 0 0 -0 -0 -1 -1 -1 -1 -1 -1 -1 -1 -1 -1 -1 -2 -2 -2 -2 -1 -1 -2 -3 -3 -2 -2 -2 -3 -3 -3 -4
2 2 2 2 1 1 1 0 0 0 -1 -1 -1 -1 -1 -1 -2 -1 -2 -1 -1 -2 -2 -3 -3 -2 -1 -1 -2 -3 -4 -4 -3 -4 -3 -3 -3 -3

GFSNE_925_temp_270.txt.gz
Temp
20 20 20 20 20 21 21 22 19 11 10 14 15 16 16 14 14 14 14 13 11 10 9 9 8 7 6 5 4 4 5 3 2 2 3 3 3 3
19 19 20 20 20 20 20 21 21 21 17 16 18 18 18 15 13 13 13 13 11 10 8 7 7 6 5 5 4 4 4 2 2 2 2 2 2 2
18 19 19 19 19 19 19 19 20 20 20 18 17 17 16 14 12 11 11 11 11 9 8 7 6 5 5 3 3 3 3 3 3 1 1 1 1 1
18 18 18 18 18 19 19 18 18 18 19 19 16 14 14 13 11 10 9 9 10 9 7 6 6 4 4 3 2 5 4 3 3 0 0 1 1 1
18 18 18 18 18 18 18 19 18 18 18 19 14 13 10 10 8 8 8 8 8 8 7 6 5 3 3 2 4 5 3 3 3 -0 -0 1 0 0
18 18 18 18 18 18 18 18 19 18 16 17 15 12 11 8 8 6 5 5 6 6 5 5 4 2 2 3 4 3 3 3 3 0 1 2 2 1
18 18 18 18 18 18 18 18 18 18 16 15 14 11 9 6 5 4 4 4 4 5 4 3 3 1 1 2 3 1 3 3 3 1 2 2 1 1
18 18 18 18 18 18 18 18 18 17 17 16 13 12 9 8 6 5 4 2 1 3 3 1 1 0 1 2 1 1 1 3 3 2 2 1 1 1
19 18 18 17 18 18 18 18 18 18 18 18 15 14 12 10 8 5 4 4 5 5 2 0 -0 -0 1 2 1 1 1 3 2 2 2 1 1 1
19 19 18 18 17 18 17 17 18 18 18 18 18 16 17 18 15 15 9 5 4 4 2 0 -1 -1 -0 0 -0 1 1 1 1 1 2 2 1 0
19 18 18 18 18 17 17 16 16 17 17 18 18 17 17 17 17 9 5 3 1 -0 1 2 -1 -1 -1 -1 -1 0 0 -0 0 0 1 1 1 -0
18 18 18 18 18 18 17 16 15 16 17 17 16 16 15 13 13 14 10 5 5 0 0 1 -1 -1 -2 -2 -2 -1 -1 -1 -1 -0 -0 -0 -1 -1
18 18 18 18 18 18 18 17 17 17 17 18 17 15 15 13 10 9 9 9 5 5 4 2 1 -0 -0 -3 -2 -2 -2 -2 -2 -2 -1 -1 0 -0
14 15 15 13 18 18 18 19 18 17 17 15 14 13 12 11 9 9 9 8 8 8 7 3 2 1 0 -3 -3 -3 -2 -3 -2 -2 -1 -1 -2 -1
13 16 17 16 13 17 18 18 18 17 16 13 11 11 12 13 11 7 6 6 6 6 6 4 3 1 1 0 -3 -3 -3 -4 -3 -3 -2 -2 -1 -2
8 11 13 15 15 12 15 16 16 16 15 14 12 12 11 9 7 6 4 4 4 3 4 4 2 3 0 0 -1 -3 -3 -4 -4 -4 -2 -2 -2 -2
6 7 8 10 13 14 15 14 12 13 12 13 11 10 9 7 5 5 4 3 4 2 0 1 1 1 1 0 -1 -2 -3 -3 -4 -4 -4 -4 -2 -2
4 4 4 5 7 7 10 11 11 11 11 11 10 9 7 5 4 3 3 3 3 2 1 0 -1 -1 -1 -1 -0 -2 -3 -3 -2 -3 -3 -4 -4 -4
2 2 2 3 4 4 4 6 6 7 7 8 7 6 6 4 3 2 3 2 2 3 1 -0 -1 -0 -0 -0 -2 -1 -2 -3 -2 -4 -4 -3 -3 -4
2 2 2 2 2 3 3 3 4 5 5 5 5 5 5 4 2 2 2 2 2 2 1 -1 -0 0 2 1 -2 -2 -1 -2 -2 -3 -4 -4 -3 -3
1 1 2 3 2 2 2 2 2 2 3 4 4 3 3 3 2 2 2 2 2 2 1 -0 -1 -0 -0 -0 -2 -3 -3 -1 -1 -2 -3 -4 -5 -4
0 1 2 2 3 3 2 2 2 2 2 2 2 2 2 2 2 1 1 1 1 1 1 -0 -1 -1 -1 -1 -2 -4 -3 -2 -2 -1 -1 -2 -4 -5
-0 0 0 1 2 2 3 2 1 1 1 1 1 1 1 1 1 1 0 0 0 -1 -1 -2 -2 -2 -1 -2 -2 -3 -3 -3 -4 -4 -3 -3 -3 -2

GFSNE_925_temp_273.txt.gz
Temp
19 19 20 19 19 19 20 20 19 15 12 15 16 19 17 17 16 15 14 14 14 14 13 10 9 9 8 7 6 5 5 4 4 4 3 4 4 4
19 18 18 19 19 19 19 19 20 20 19 19 20 20 20 18 17 14 14 14 14 13 12 10 9 8 7 7 6 5 5 4 5 5 4 3 3 3
18 18 18 18 18 18 18 18 18 18 19 20 18 19 18 18 16 14 13 13 13 13 12 11 9 8 7 6 5 5 5 6 6 4 5 3 3 3
18 17 18 18 18 18 17 17 18 18 18 19 18 17 17 16 15 13 11 11 12 12 11 10 8 7 7 6 5 5 5 6 5 5 5 2 2 2
17 18 18 17 18 17 18 17 17 17 17 17 19 14 14 13 10 10 9 9 10 11 11 9 8 7 6 5 4 5 4 5 4 5 4 2 2 1
18 17 18 18 17 18 17 17 17 17 16 16 16 13 13 10 9 8 7 8 9 9 9 8 7 7 6 5 3 4 4 5 4 4 4 4 2 1
18 17 17 18 18 18 18 17 17 17 16 15 13 12 11 8 8 7 7 7 7 7 7 6 6 5 5 5 3 3 4 4 4 4 4 4 3 0
17 18 17 17 18 18 18 18 18 17 17 16 14 12 10 10 8 7 6 4 3 5 5 4 5 4 4 4 3 3 3 3 4 4 4 4 3 0
18 18 18 17 17 17 18 18 18 18 18 17 16 13 15 12 10 7 6 6 7 7 5 3 2 3 3 2 3 3 3 3 3 4 4 3 2 1
18 18 18 18 17 17 16 16 17 17 18 17 17 16 15 17 16 17 14 8 6 6 6 2 2 2 2 2 2 2 3 2 3 3 3 3 2 2
16 17 18 17 17 17 17 16 15 15 17 17 18 18 17 16 17 12 8 4 3 3 4 4 1 1 1 1 1 1 2 2 2 2 2 2 2 1
15 16 17 17 18 18 17 16 16 15 15 15 16 16 16 15 15 17 13 7 6 2 3 3 1 1 -0 -0 -0 -0 -0 1 1 0 1 1 0 -1
13 15 16 16 17 18 18 17 16 16 15 15 15 15 15 14 13 12 12 11 8 8 9 4 1 0 2 -1 -2 -1 -1 -1 -1 -1 -1 -0 -0 -1
8 12 11 15 14 15 15 15 15 14 15 15 14 14 14 13 13 11 11 12 11 12 11 7 5 3 2 -1 -2 -2 -2 -1 -1 -2 -2 -2 -2 -1
6 8 11 10 11 12 14 15 15 14 13 12 13 13 14 15 13 10 9 8 8 8 8 8 7 5 3 2 1 -1 -2 -2 -2 -2 -2 -3 -3 -4
5 6 7 10 12 13 13 14 14 15 14 13 12 12 12 11 10 10 7 6 6 6 6 6 5 5 2 2 2 -1 -1 -2 -2 -2 -3 -4 -4 -4
4 6 6 6 6 10 13 12 13 13 13 13 12 12 9 9 8 7 6 4 5 3 2 3 3 3 3 2 -0 -0 -2 -2 -2 -3 -3 -4 -5 -4
3 2 2 2 2 3 4 6 7 8 10 13 13 12 10 9 7 6 6 5 4 5 2 1 1 0 1 1 1 -1 -1 -2 -3 -3 -4 -4 -5 -5
1 1 1 2 2 3 3 3 3 4 4 6 8 9 9 9 6 4 4 3 3 4 2 1 0 1 1 2 0 -0 -1 -2 -3 -4 -4 -4 -4 -5
0 0 0 1 1 2 2 2 3 3 3 3 4 5 6 6 4 3 3 3 3 3 2 1 0 1 2 3 1 -2 -1 -2 -3 -3 -4 -4 -3 -3
-1 -1 -1 -0 0 1 2 2 2 2 2 2 2 3 3 3 3 3 3 3 3 3 2 1 0 1 1 1 -1 -3 -2 -2 -1 -2 -4 -4 -4 -4
-2 -2 -2 -1 -1 0 1 2 2 2 2 2 1 2 2 2 2 2 2 2 2 2 2 2 0 -0 -0 0 0 -3 -3 -3 -2 -2 -2 -2 -3 -5
-2 -2 -2 -2 -2 -1 0 1 1 1 1 1 1 1 1 1 1 1 2 1 1 1 1 -1 -1 -1 -1 -1 -2 -3 -3 -3 -3 -4 -4 -3 -3 -2

GFSNE_925_temp_279.txt.gz
Temp
16 17 17 18 18 19 19 20 21 22 23 22 18 18 20 18 20 18 18 18 18 16 15 15 15 15 14 13 12 11 10 8 7 7 6 6 6 6
16 17 17 18 18 18 19 19 20 20 22 22 21 19 20 20 19 20 18 18 18 16 15 15 15 15 14 13 13 12 10 9 8 7 6 7 7 7
16 17 17 17 18 18 18 19 19 19 20 21 21 20 19 20 19 20 20 19 19 19 16 15 15 15 14 13 13 12 10 9 8 7 7 7 8 7
16 16 17 17 17 17 18 18 18 18 18 20 20 20 18 19 19 18 19 19 19 20 19 15 14 14 14 14 13 12 11 10 8 7 7 7 7 7
15 16 16 17 17 17 17 18 17 18 18 18 19 20 17 17 17 16 16 18 18 17 19 15 13 14 14 14 13 12 11 10 8 7 7 7 7 7
15 15 16 16 16 17 17 17 17 17 17 18 18 18 15 13 13 13 12 13 14 15 15 15 12 12 13 13 13 12 11 10 8 7 6 7 7 6
16 15 15 16 16 16 16 16 16 16 16 16 17 17 15 10 11 12 11 11 12 12 11 12 11 11 12 12 12 11 11 10 8 7 6 6 6 5
14 15 16 15 15 15 15 15 16 16 16 16 16 16 17 13 13 13 11 9 8 11 10 10 11 11 11 11 11 11 10 9 8 7 6 5 6 5
10 13 15 15 15 14 15 15 15 16 17 16 16 16 17 17 14 11 10 11 13 13 10 9 9 10 10 10 10 11 10 10 8 8 7 5 5 5
6 8 11 14 15 14 15 15 15 16 16 16 16 16 16 17 15 13 12 11 11 11 9 8 9 9 8 9 9 10 10 10 9 8 7 6 5 5
4 7 7 8 10 10 14 15 15 16 15 15 16 15 15 16 15 12 10 8 8 8 8 9 8 7 7 8 8 8 8 8 8 7 7 6 5 4
2 4 5 6 7 9 8 10 14 15 15 14 14 14 14 14 14 14 12 10 10 4 9 6 7 6 5 7 8 7 6 6 6 6 5 5 5 4
1 2 3 4 6 7 8 8 9 14 15 15 14 14 14 13 13 12 13 11 12 10 14 8 6 6 7 4 4 4 5 4 4 3 3 3 3 4
-0 0 1 3 5 5 7 8 10 11 12 14 14 14 14 14 13 12 13 12 13 14 13 12 10 7 6 3 3 4 2 2 3 2 1 1 1 2
-1 -1 2 3 3 4 5 6 7 10 10 12 13 14 14 15 14 13 13 11 11 11 12 12 10 11 8 6 5 2 2 2 2 1 1 1 0 -0
-2 -1 1 1 1 2 4 4 4 5 7 10 11 12 14 14 14 13 10 9 9 8 9 10 9 9 7 6 7 3 4 5 1 1 1 0 -0 -0
-2 -1 -1 -0 -0 0 1 1 2 3 3 4 6 8 10 12 12 12 10 8 7 8 5 7 6 7 8 8 5 5 5 3 3 2 -0 -0 -1 -0
-2 -2 -1 -1 -1 -1 -0 -0 0 1 1 2 3 4 6 7 9 10 10 9 7 7 6 4 3 3 3 4 5 5 3 3 3 2 0 -0 -1 -1
-2 -2 -2 -2 -2 -2 -1 -1 -1 -0 0 1 2 2 3 4 6 6 6 7 7 8 7 5 3 4 3 5 5 5 3 2 1 1 0 -0 0 -1
-2 -2 -2 -2 -2 -2 -2 -2 -1 -1 -1 0 1 1 2 2 3 4 5 5 5 5 5 3 3 4 6 5 5 3 2 2 0 0 -1 -1 -1 -1
-2 -2 -2 -1 -1 -2 -2 -2 -2 -2 -1 -1 -0 0 1 1 2 2 3 3 4 4 3 2 3 3 4 3 2 1 3 2 2 1 -1 -2 -2 -4
-2 -2 -2 -2 -2 -2 -2 -2 -2 -2 -2 -1 -1 -0 0 0 1 1 1 2 2 3 3 4 3 2 2 3 3 -1 -0 -0 -0 -0 0 1 -2 -3
-2 -3 -3 -3 -2 -2 -2 -2 -2 -2 -2 -2 -1 -1 -1 -0 0 0 1 1 1 2 2 2 1 1 1 1 2 -1 -1 -2 -2 -3 -3 -2 -2 -1

GFSNE_925_temp_282.txt.gz
Temp
17 17 18 19 21 21 22 23 23 24 25 25 22 22 20 19 19 18 17 17 19 18 18 16 15 15 15 14 14 14 14 13 11 9 8 8 7 7
17 17 17 18 19 20 20 21 22 23 24 24 24 24 21 19 20 19 18 21 21 20 18 17 16 15 15 15 14 14 14 13 12 10 8 8 7 7
15 16 17 18 18 19 20 20 21 22 23 22 23 23 23 19 20 19 18 18 18 21 21 20 18 16 15 15 15 15 14 14 12 11 9 8 8 8
16 16 16 16 17 18 19 20 20 21 22 22 22 22 22 22 19 19 18 18 18 18 21 22 21 19 16 15 15 15 14 14 12 11 9 8 8 8
15 16 16 16 17 16 17 18 19 20 20 20 21 21 21 22 20 18 18 17 16 17 17 20 20 20 18 15 15 15 14 14 13 11 9 8 8 8
12 14 16 16 15 16 16 16 17 18 18 18 19 19 20 20 20 18 17 15 14 16 18 18 19 19 19 16 14 14 14 14 13 12 10 8 8 7
10 12 13 15 16 15 15 16 16 15 15 15 15 15 16 17 16 16 16 16 13 13 13 14 14 16 16 15 14 13 14 14 14 13 10 9 8 7
7 9 11 13 12 15 16 16 16 15 15 14 15 15 15 15 16 15 16 15 12 12 11 11 11 12 16 16 18 18 14 13 13 12 11 9 8 7
6 6 7 8 10 11 12 15 15 15 15 14 15 16 15 16 16 15 14 15 15 15 13 11 11 11 13 13 15 16 14 12 12 13 11 10 9 7
5 5 5 5 6 6 8 10 12 14 14 15 14 15 15 16 16 16 16 14 14 14 14 10 11 12 10 11 12 11 13 11 11 11 11 10 9 8
4 4 3 4 4 5 4 6 9 11 13 15 15 15 16 15 16 16 15 13 11 11 12 11 11 10 10 10 11 12 10 10 10 10 11 10 9 8
3 4 3 2 3 4 2 2 3 6 10 12 13 14 14 15 15 15 15 13 13 8 10 9 10 9 8 11 11 12 11 9 9 9 9 9 8 7
2 3 3 1 2 4 3 3 3 3 6 8 11 11 14 14 13 13 13 14 13 12 13 11 10 8 8 10 10 11 9 8 8 6 6 7 7 6
-1 0 0 -1 0 3 3 3 3 4 5 5 8 10 12 14 13 13 13 13 13 13 14 12 11 9 8 7 8 10 9 6 6 5 4 4 4 5
-1 -2 -2 -1 -0 1 3 4 3 2 2 3 6 9 11 13 13 14 13 13 13 13 13 12 12 12 11 11 10 7 6 6 5 4 4 3 3 2
-1 -2 -2 -1 -0 -0 0 2 2 1 1 1 1 2 5 7 9 12 12 11 11 11 11 11 12 11 9 9 10 6 6 7 4 3 3 3 2 2
-2 -2 -1 -1 -1 -1 -1 -1 -1 -0 0 0 0 1 2 3 5 7 10 10 9 9 8 9 9 9 8 8 6 7 5 4 6 4 2 2 2 2
-2 -2 -1 -1 -1 -1 -1 -1 -1 -1 -1 -1 -0 -0 0 1 2 4 5 8 7 9 9 7 5 5 5 6 7 6 5 5 4 5 1 1 1 1
-1 -1 -1 -1 -1 -1 -1 -1 -1 -1 -2 -1 -1 -1 -0 0 1 1 3 4 6 7 8 7 5 5 5 6 7 6 6 5 3 1 2 2 2 1
-1 -1 -1 -1 -1 -1 -0 -0 -1 -1 -2 -2 -1 -1 -1 -0 -0 1 1 2 3 4 6 6 4 4 6 7 5 5 5 5 2 2 0 1 1 1
-1 -1 -1 -1 -1 -2 -1 -1 -1 -1 -2 -2 -1 -1 -1 -1 -0 0 0 1 1 2 3 3 5 5 5 5 4 2 5 4 3 3 1 -0 -1 -2
-1 -1 -1 -1 -2 -2 -2 -2 -2 -1 -1 -1 -2 -2 -1 -1 -1 -1 -0 -0 0 1 1 2 3 3 3 3 4 1 1 1 1 1 1 1 -0 -2
-1 -1 -1 -2 -2 -2 -2 -2 -2 -2 -2 -2 -2 -2 -1 -2 -1 -1 -1 -0 -0 -0 0 1 1 1 1 2 2 -0 -0 -1 -1 -1 -1 -1 -0 -0

GFSNE_925_temp_288.txt.gz
Temp
13 14 14 15 17 19 20 21 21 20 20 23 24 24 23 23 22 22 21 21 21 20 20 19 19 18 17 16 16 15 15 15 14 14 13 13 12 11
11 12 14 14 14 16 18 19 19 19 20 22 23 24 24 23 23 22 22 22 21 21 20 20 19 19 18 17 16 15 14 14 14 14 13 12 12 11
8 9 11 13 14 15 16 17 18 18 18 20 21 22 23 24 23 22 22 22 21 21 21 21 20 20 19 18 18 16 14 14 14 14 14 14 13 12
8 8 9 9 11 12 14 15 16 17 18 17 19 20 21 22 23 23 23 22 21 21 21 21 21 21 20 20 19 19 16 14 14 14 14 14 14 13
8 8 8 9 9 9 10 12 13 13 15 17 18 17 19 19 18 17 16 21 21 21 20 20 20 20 20 19 19 19 18 16 14 14 14 14 14 14
7 8 8 8 8 7 7 8 9 11 13 14 16 16 16 16 17 16 15 14 16 19 19 19 19 19 19 19 19 18 18 16 15 14 14 14 14 14
6 7 7 7 6 6 6 5 5 7 9 13 14 14 14 14 15 16 15 14 15 15 17 18 18 18 19 19 18 18 18 17 17 16 14 14 14 14
6 6 6 7 6 5 5 5 5 4 5 8 10 13 14 14 15 15 14 13 13 17 16 16 17 16 17 17 18 18 18 17 17 16 15 14 13 14
5 5 5 5 5 5 4 4 3 4 4 5 7 9 11 13 14 14 13 13 14 15 15 15 17 16 17 15 16 16 18 18 18 17 17 14 13 13
4 3 3 4 4 3 3 2 2 2 4 5 5 6 6 9 10 11 13 14 14 14 14 14 15 14 15 15 15 16 16 16 16 16 16 16 14 12
2 1 2 3 2 1 0 -1 -0 1 2 3 4 6 7 8 9 9 10 12 13 13 14 13 14 14 14 15 15 15 15 15 15 16 15 15 15 14
1 0 0 1 -0 -1 -1 -2 -1 -0 0 1 4 4 5 6 8 8 8 10 12 12 14 14 13 13 12 14 15 14 14 14 14 15 14 14 12 10
0 -0 -0 -0 -1 -1 -1 -2 -1 -1 -0 0 2 3 3 4 5 7 8 9 10 11 12 13 13 13 12 13 14 13 14 14 15 15 15 15 14 10
-1 -1 -1 -1 -1 -1 -2 -1 -1 -1 -1 0 2 2 2 2 2 4 6 7 7 7 9 11 12 12 11 11 11 13 13 13 13 13 14 14 14 12
-1 -1 -1 -2 -2 -2 -1 -1 -1 -0 -0 -0 -0 0 1 0 1 1 3 4 6 8 9 10 11 12 12 12 12 12 10 11 11 12 12 12 13 11
-2 -2 -2 -2 -2 -1 -1 -1 -1 -0 -0 -0 -1 -1 -1 -1 -0 0 0 1 1 5 6 7 8 9 12 11 11 12 12 10 11 10 12 11 9 9
-1 -2 -2 -2 -1 -1 -1 -1 -1 -1 -0 -0 -0 -1 -1 -2 -1 -1 -0 0 1 2 2 4 5 6 8 9 10 10 11 10 11 10 9 8 8 8
-1 -2 -2 -2 -1 -1 -1 -1 -0 -1 -1 -0 -0 -0 -1 -1 -2 -1 -1 -1 0 1 1 1 2 3 5 7 8 8 9 9 9 10 9 7 6 7
-2 -1 -2 -1 -1 -0 -0 -1 -1 -0 -1 -1 -1 -1 -1 -1 -1 -1 -2 -1 -1 -0 0 0 1 2 3 4 6 8 7 7 7 7 7 6 7 7
-1 -1 -1 -1 -1 -1 -1 -1 -1 -0 -0 -1 -1 -1 -1 -1 -1 -1 -1 -2 -1 -1 -1 -0 0 1 2 2 2 3 5 6 6 6 5 5 4 4
-1 -1 -1 -1 -1 -1 -1 -1 -1 -1 -1 -1 -1 -1 -1 -1 -1 -1 -1 -1 -2 -1 -1 -1 -0 -0 0 0 1 2 3 5 5 4 5 3 2 1
-1 -1 -1 -1 -1 -1 -1 -1 -1 -1 -1 -1 -1 -1 -2 -2 -2 -1 -1 -1 -1 -2 -2 -1 -1 -1 -1 -0 1 1 2 2 3 4 2 3 3 1
-1 -1 -1 -1 -2 -2 -2 -2 -2 -2 -2 -2 -2 -2 -2 -2 -2 -2 -2 -2 -1 -1 -1 -1 -1 -1 -1 -1 -0 -0 -0 0 0 0 0 -0 0 0